Regional Weather Roundup
Issued by NWS

Home | Current Version | Previous Version | Graphics & Text | Print | Product List | Glossary On
Versions: 1 2 3 4 5 6 7 8 9 10 11 12 13 14 15 16 17 18 19 20 21 22 23 24 25 26 27 28 29 30 31 32 33 34 35 36 37 38 39 40 41 42 43 44 45 46 47 48 49 50
000
ASUS45 KSLC 210910
RWRUT

UTAH REGIONAL WEATHER ROUNDUP
NATIONAL WEATHER SERVICE SALT LAKE CITY UT
300 AM MDT TUE OCT 21 2014

UTZ001>011-023>025-211000-

NORTHERN UTAH

CITY           SKY/WX    TMP DP  RH WIND       PRES   REMARKS
BRIGHAM CITY   PTCLDY    54  40  58 CALM      29.87F
HILL AFB       MOCLDY    63  41  45 S12       29.90S
LOGAN          PTCLDY    49  39  68 W8        29.88F
OGDEN          PTCLDY    65  41  41 SE10      29.87S
PROVO AIRPORT  MOCLDY    61  39  44 SE10      29.95S
SALT LAKE CITY MOCLDY    63  40  42 SE12      29.89F
VERNAL         PTCLDY    44  37  76 NW5       30.04S
WENDOVER       MOCLDY    57  37  47 NE7       29.83F
HEBER CITY     MOCLDY    50  39  66 N5        30.01S
WEST JORDAN    CLEAR     59  46  63 SE12      29.92F

$$

UTZ012>022-026-027-211000-

SOUTHERN/CENTRAL UTAH

CITY           SKY/WX    TMP DP  RH WIND       PRES   REMARKS
BLANDING       PTCLDY    50  40  70 NE6       30.20S
BRYCE CANYON   CLOUDY    36  33  89 CALM      30.17F
CEDAR CITY     MOCLDY    57  38  48 S7        30.02S
DELTA          CLOUDY    58  37  45 S10       29.95S
HANKSVILLE       N/A     50  36  57 CALM      30.03S
MILFORD        NOT AVBL
MOAB/CYNLANDS  MOCLDY    59  40  49 SE7       30.00S
PRICE          MOCLDY    50  36  58 N9        30.06F
ST GEORGE      PTSUNNY   64  37  36 S3        29.93S
KANAB            N/A     48  36  61 N3        30.08S

$$

REGIONAL REPORTS     COLORADO/ARIZONA

CITY           SKY/WX    TMP DP  RH WIND       PRES   REMARKS
CRAIG, CO      MOCLDY    33  30  88 CALM      30.12S
GRAND JUNCTION PTCLDY    55  37  50 E12       30.05R
RIFLE          CLOUDY    46  37  71 CALM      30.10S
MONTROSE       CLOUDY    51  38  60 CALM      30.13S
CORTEZ         CLOUDY    57  42  57 SE13      30.15F
PAGE, AZ       NOT AVBL
GRAND CANYON   CLEAR     35  30  82 CALM      30.16S
KINGMAN        CLEAR     59  41  51 SW6       29.96F
FLAGSTAFF      PTCLDY    37  34  89 CALM      30.18S

$$

REGIONAL REPORTS    NEVADA/IDAHO/WYOMING

CITY           SKY/WX    TMP DP  RH WIND       PRES   REMARKS
LAS VEGAS, NV  PTCLDY    73  38  27 S13       29.82R
ELY            PTCLDY    57  35  43 SE22G30   29.95F
ELKO           PTCLDY    54  29  38 S15       29.88R
POCATELLO, ID  LGT RAIN  68  35  29 SE15G24   29.80F
BURLEY         MOCLDY    62  36  37 SE8       29.75F
EVANSTON, WY   PTCLDY    48  34  58 SW7       30.05S
ROCK SPRINGS   CLEAR     48  34  58 SW9       30.05F
KEMMERER       PTCLDY    37  32  81 N3        30.06F

$$



USA.gov is the U.S. government's official web portal to all federal, state and local government web resources and services.